Cincinnati, OH

12:56 PM EDT on October 18, 2017 (GMT -0400)
Cincinnati Municipal-Lunken

Weather History for KLUK - December, 2012

Change the Weather History Date:

Saturday, December 22, 2012

  Actual Average Record
Temperature  
Mean Temperature 30 °F -  
Max Temperature 35 °F 41 °F 64 °F (1949)
Min Temperature 24 °F 23 °F -14 °F (1989)
Degree Days  
Heating Degree Days 35    
Moisture  
Dew Point 21 °F    
Average Humidity 74    
Maximum Humidity 91    
Minimum Humidity 57    
Precipitation  
Precipitation 0.00 in - - ()
Sea Level Pressure  
Sea Level Pressure 30.20 in    
Wind  
Wind Speed 11 mph (WSW)    
Max Wind Speed 16 mph    
Max Gust Speed 24 mph    
Visibility 10 miles    
Events      
Averages and records for this station are not official NWS values.
T = Trace of Precipitation, MM = Missing Value Source: NWS Daily Summary

Daily Weather History Graph

Daily Weather History Graph

Search for Another Location

Airport or City:

Trip Planner

Search our weather history database for the weather conditions in past years. The results will help you decide how hot, cold, wet, or windy it might be!

Date:

Astronomy

Dec. 22, 2012 Rise Set
Actual Time 7:54 AM EST 5:19 PM EST
Civil Twilight 7:23 AM EST 5:49 PM EST
Nautical Twilight 6:50 AM EST 6:22 PM EST
Astronomical Twilight 6:17 AM EST 6:55 PM EST
Moon 1:35 PM EST (12/22) 2:39 AM EST (12/22)
Length of Visible Light 10h 25m
Length of Day
9h 25m
Waxing Gibbous, 73% of the Moon is Illuminated
Dec 22
Waxing Gibbous
Dec 28
Full
Jan 4
Last Quarter
Jan 11
New
Jan 18
First Quarter

Hourly Weather History & Observations

Time (EST) Temp. Windchill Dew Point Humidity Pressure Visibility Wind Dir Wind Speed Gust Speed Precip Events Conditions
12:33 AM 28.4 °F 17.5 °F 21.2 °F 74% 30.11 in 10.0 mi West 13.8 mph 24.2 mph N/A   Overcast
12:53 AM 28.9 °F 18.2 °F 21.9 °F 75% 30.14 in 10.0 mi West 13.8 mph 23.0 mph N/A   Overcast
1:14 AM 28.4 °F 17.5 °F 21.2 °F 74% 30.12 in 10.0 mi West 13.8 mph - N/A   Overcast
1:37 AM 28.4 °F 17.5 °F 21.2 °F 74% 30.14 in 10.0 mi West 13.8 mph 24.2 mph N/A   Overcast
1:49 AM 28.4 °F 18.0 °F 21.2 °F 74% 30.14 in 10.0 mi West 12.7 mph 23.0 mph N/A   Overcast
1:53 AM 28.9 °F 18.6 °F 21.9 °F 75% 30.16 in 10.0 mi West 12.7 mph 21.9 mph N/A   Overcast
2:53 AM 28.9 °F 21.1 °F 21.9 °F 75% 30.19 in 10.0 mi West 8.1 mph - N/A   Overcast
3:37 AM 28.4 °F 18.0 °F 21.2 °F 74% 30.18 in 10.0 mi WSW 12.7 mph - N/A   Overcast
3:53 AM 28.4 °F 18.0 °F 21.2 °F 74% 30.18 in 10.0 mi West 12.7 mph 23.0 mph N/A   Overcast
4:53 AM 28.0 °F 17.5 °F 21.9 °F 78% 30.21 in 10.0 mi West 12.7 mph - N/A   Overcast
5:53 AM 28.0 °F 16.5 °F 21.0 °F 75% 30.22 in 10.0 mi West 15.0 mph 18.4 mph N/A   Overcast
7:53 AM 27.0 °F 18.7 °F 21.9 °F 81% 30.24 in 10.0 mi WSW 8.1 mph - N/A   Overcast
8:53 AM 27.0 °F 16.7 °F 21.0 °F 78% 30.28 in 10.0 mi WSW 11.5 mph - N/A   Overcast
9:53 AM 26.1 °F 13.6 °F 19.9 °F 78% 30.32 in 10.0 mi West 16.1 mph - N/A   Overcast
10:53 AM 27.0 °F 18.0 °F 19.9 °F 75% 30.31 in 10.0 mi WSW 9.2 mph - N/A   Overcast
11:46 AM 28.4 °F 17.5 °F 21.2 °F 74% 30.27 in 10.0 mi SW 13.8 mph - N/A   Scattered Clouds
11:53 AM 28.0 °F 17.5 °F 19.9 °F 72% 30.28 in 10.0 mi WSW 12.7 mph - N/A   Scattered Clouds
12:53 PM 32.0 °F 23.0 °F 21.0 °F 64% 30.25 in 10.0 mi WSW 11.5 mph 18.4 mph N/A   Partly Cloudy
1:53 PM 33.1 °F 24.4 °F 21.9 °F 64% 30.24 in 10.0 mi WSW 11.5 mph - N/A   Clear
2:53 PM 35.1 °F 29.3 °F 21.9 °F 59% 30.21 in 10.0 mi SW 6.9 mph - N/A   Clear
3:53 PM 35.1 °F 27.9 °F 21.0 °F 57% 30.20 in 10.0 mi WSW 9.2 mph - N/A   Clear
4:53 PM 33.1 °F 26.9 °F 21.9 °F 64% 30.19 in 10.0 mi WSW 6.9 mph - N/A   Clear
5:53 PM 30.9 °F 24.3 °F 21.9 °F 69% 30.19 in 10.0 mi SW 6.9 mph - N/A   Clear
6:53 PM 30.0 °F 26.5 °F 21.9 °F 72% 30.20 in 10.0 mi South 3.5 mph - N/A   Clear
7:53 PM 28.9 °F 22.8 °F 21.0 °F 72% 30.18 in 10.0 mi SSW 5.8 mph - N/A   Clear
8:53 PM 28.9 °F 25.2 °F 21.0 °F 72% 30.16 in 10.0 mi SSW 3.5 mph - N/A   Clear
9:53 PM 26.1 °F - 21.9 °F 84% 30.15 in 10.0 mi Calm Calm - N/A   Clear
10:53 PM 25.0 °F - 21.0 °F 85% 30.14 in 10.0 mi Calm Calm - N/A   Clear
11:53 PM 24.1 °F - 21.9 °F 91% 30.13 in 10.0 mi Calm Calm - N/A   Clear